SCP
0 0 0 0 0 0 0 0 0 0 0 0 0 0 0 0 0 0 0 0 0 0
0 0 0 0 0 0 0 0 0 0 0 0 0 0 0 0 0 0 0 0 0 0
0 0 0 0 0 0 0 0 0 0 0 0 0 0 0 0 0 0 0 0 0 0
0 0 0 0 0 0 0 0 0 0 0 0 0 0 0 0 0 0 0 0 0 0
0 0 0 0 0 0 0 0 0 0 0 0 0 0 0 0 0 0 0 0 0 0
0 0 0 0 0 0 0 0 0 0 0 0 0 0 0 0 0 0 0 0 0 0
0 0 0 0 0 0 0 0 0 0 0 0 0 0 0 0 0 0 0 0 0 0
0 0 0 0 0 0 0 0 0 0 0 0 0 0 0 0 0 0 0 0 0 0
0 0 0 0 0 0 0 0 0 0 0 0 0 0 0 0 0 0 0 0 0 0
0 0 0 0 0 0 0 0 0 0 0 0 0 0 0 0 0 0 0 0 0 0
0 0 0 0 0 0 0 0 0 0 0 0 0 0 0 0 0 0 0 0 0 0
0 0 0 0 0 0 0 0 0 0 0 0 0 0 0 0 0 0 0 0 0 0
0 0 0 0 0 0 0 0 0 0 0 0 0 0 0 0 0 0 0 0 0 0
0 0 0 0 0 0 0 0 0 0 0 0 0 0 0 0 0 0 0 0 0 0
Wind_Speed_500mb
40 32 24 12 4 7 5 4 3 3 7 12 17 21 25 27 27 27 28 29 30 31
35 30 24 14 15 17 15 11 5 1 8 13 19 24 27 27 28 28 28 30 32 36
36 33 28 22 24 21 16 10 3 5 12 18 23 26 27 28 28 29 33 36 37 40
38 36 32 28 25 20 14 6 1 6 14 21 24 25 25 27 31 34 37 39 42 43
43 41 36 31 25 19 13 8 5 8 16 21 23 25 25 28 32 38 42 45 47 49
49 45 39 33 26 21 16 12 11 13 17 22 22 24 26 30 35 40 46 49 51 52
53 45 40 35 30 26 21 18 17 18 23 23 23 26 29 32 37 44 47 49 52 52
52 48 45 41 36 31 26 24 23 24 28 30 30 31 34 37 42 47 51 52 52 53
55 54 51 44 40 35 32 29 29 30 32 35 37 39 39 42 45 50 55 56 54 53
59 58 54 49 45 41 37 35 35 35 38 39 40 42 45 48 51 55 57 56 55 54
60 58 57 54 49 46 44 41 39 39 41 42 42 45 49 51 55 58 57 56 55 55
59 60 60 57 53 51 49 46 42 42 42 42 44 47 50 54 58 59 58 57 55 56
57 58 58 55 55 55 53 50 49 46 43 45 48 49 51 55 60 60 58 57 56 57
51 52 52 53 57 57 57 57 56 51 48 51 53 53 53 54 58 58 58 58 60 59
Wind_Direction_500mb
175 169 164 152 156 168 186 219 233 323 356 7 6 0 357 352 348 347 346 345 343 341
175 179 183 187 197 198 195 191 182 16 10 6 2 353 348 346 343 343 342 339 338 335
187 190 191 197 199 193 188 182 159 16 1 353 349 343 341 338 340 339 340 337 336 331
197 199 203 205 198 193 189 184 112 345 338 339 338 337 338 337 337 337 335 331 329 328
205 207 208 205 198 195 197 212 262 308 323 328 330 334 332 334 335 336 331 328 327 327
211 210 208 206 203 205 215 231 258 291 309 317 318 319 326 327 331 332 326 322 320 319
216 212 214 211 209 214 224 239 263 285 296 296 302 307 313 318 324 328 325 319 315 313
218 217 218 216 217 221 231 244 263 281 285 288 293 299 304 312 320 320 317 314 311 310
222 222 223 224 225 229 238 251 266 278 285 287 289 292 299 305 310 314 314 311 309 308
227 226 229 228 231 236 246 256 267 277 285 286 287 292 297 301 306 310 311 308 307 308
230 231 231 231 235 243 252 260 268 277 283 286 289 291 293 298 304 307 307 306 306 307
234 233 232 234 240 248 254 261 269 274 280 286 288 288 292 297 301 305 304 303 303 304
235 234 234 238 245 252 257 261 263 269 277 283 286 287 290 296 300 300 300 299 299 301
230 232 236 242 248 255 258 260 262 267 275 282 284 287 290 293 295 295 295 296 298 301
Wind_Speed_850mb
40 32 24 12 4 7 5 4 3 3 7 12 17 21 25 27 27 27 28 29 30 31
35 30 24 14 15 17 15 11 5 1 8 13 19 24 27 27 28 28 28 30 32 36
36 33 28 22 24 21 16 10 3 5 12 18 23 26 27 28 28 29 33 36 37 40
38 36 32 28 25 20 14 6 1 6 14 21 24 25 25 27 31 34 37 39 42 43
43 41 36 31 25 19 13 8 5 8 16 21 23 25 25 28 32 38 42 45 47 49
49 45 39 33 26 21 16 12 11 13 17 22 22 24 26 30 35 40 46 49 51 52
53 45 40 35 30 26 21 18 17 18 23 23 23 26 29 32 37 44 47 49 52 52
52 48 45 41 36 31 26 24 23 24 28 30 30 31 34 37 42 47 51 52 52 53
55 54 51 44 40 35 32 29 29 30 32 35 37 39 39 42 45 50 55 56 54 53
59 58 54 49 45 41 37 35 35 35 38 39 40 42 45 48 51 55 57 56 55 54
60 58 57 54 49 46 44 41 39 39 41 42 42 45 49 51 55 58 57 56 55 55
59 60 60 57 53 51 49 46 42 42 42 42 44 47 50 54 58 59 58 57 55 56
57 58 58 55 55 55 53 50 49 46 43 45 48 49 51 55 60 60 58 57 56 57
51 52 52 53 57 57 57 57 56 51 48 51 53 53 53 54 58 58 58 58 60 59
Wind_Direction_850mb
175 169 164 152 156 168 186 219 233 323 356 7 6 0 357 352 348 347 346 345 343 341
175 179 183 187 197 198 195 191 182 16 10 6 2 353 348 346 343 343 342 339 338 335
187 190 191 197 199 193 188 182 159 16 1 353 349 343 341 338 340 339 340 337 336 331
197 199 203 205 198 193 189 184 112 345 338 339 338 337 338 337 337 337 335 331 329 328
205 207 208 205 198 195 197 212 262 308 323 328 330 334 332 334 335 336 331 328 327 327
211 210 208 206 203 205 215 231 258 291 309 317 318 319 326 327 331 332 326 322 320 319
216 212 214 211 209 214 224 239 263 285 296 296 302 307 313 318 324 328 325 319 315 313
218 217 218 216 217 221 231 244 263 281 285 288 293 299 304 312 320 320 317 314 311 310
222 222 223 224 225 229 238 251 266 278 285 287 289 292 299 305 310 314 314 311 309 308
227 226 229 228 231 236 246 256 267 277 285 286 287 292 297 301 306 310 311 308 307 308
230 231 231 231 235 243 252 260 268 277 283 286 289 291 293 298 304 307 307 306 306 307
234 233 232 234 240 248 254 261 269 274 280 286 288 288 292 297 301 305 304 303 303 304
235 234 234 238 245 252 257 261 263 269 277 283 286 287 290 296 300 300 300 299 299 301
230 232 236 242 248 255 258 260 262 267 275 282 284 287 290 293 295 295 295 296 298 301